Date String (YYYY-MM-DD hh:mm:ss) UTC,Instrument flags,Ambient pressure (hPa),Sample flow (lpm),Bypass flow (lpm),Sample temperature (°C),Ambient temperature (°C),ASC tube jacket temperature (°C),LED temperature (°C),Box temperature (°C),Sample RH (%),Span deviation,Mass concentration (μg/m³),Mass concentration (μg/m³),Mass concentration (μg/m³)
DateTimeUTC,F1_M11,P_M11,Q1_M11,Q2_M11,T1_M11,T2_M11,T3_M11,T4_M11,T5_M11,U1_M11,ZSPAN_M11,X0_M11,X2_M11,X1_M11
2022-06-04 23:00:00,,0820.5,5.00,0.00,29.4,28.6,00.0,38.2,31.4,17.5,0000.0,0009.03,0003.17,0001.89
2022-06-04 23:01:00,,0820.5,5.01,0.00,29.4,28.6,00.0,38.2,31.4,18.7,0000.0,0009.10,0003.20,0001.88
2022-06-04 23:02:00,,0820.5,5.00,0.00,29.4,28.7,00.0,38.2,31.4,19.0,0000.0,0009.07,0003.21,0001.88
2022-06-04 23:03:00,,0820.6,5.03,0.00,29.5,28.7,00.0,38.2,31.5,19.3,0000.0,0009.31,0003.25,0001.89
2022-06-04 23:04:00,,0820.5,5.01,0.00,29.5,28.7,00.0,38.2,31.5,18.8,0000.0,0009.16,0003.27,0001.89
2022-06-04 23:05:00,,0820.4,4.99,0.00,29.5,28.6,00.0,38.2,31.5,18.4,0000.0,0009.29,0003.31,0001.89
2022-06-04 23:06:00,,0820.3,5.00,0.00,29.5,27.7,00.0,38.2,31.3,17.8,0000.0,0009.07,0003.31,0001.87
2022-06-04 23:07:00,,0820.3,5.01,0.00,29.4,27.2,00.0,38.1,31.1,17.3,0000.0,0009.93,0003.31,0001.87
2022-06-04 23:08:00,,0820.3,4.99,0.00,29.3,27.2,00.0,38.1,31.0,17.8,0000.0,0010.85,0003.30,0001.85
2022-06-04 23:09:00,,0820.4,4.99,0.00,29.3,27.3,00.0,38.1,31.0,18.6,0000.0,0010.93,0003.30,0001.84
2022-06-04 23:10:00,,0820.3,5.01,0.00,29.3,27.4,00.0,38.1,31.0,18.7,0000.0,0010.44,0003.32,0001.83
2022-06-04 23:11:00,,0820.6,5.00,0.00,29.3,27.5,00.0,38.1,31.1,19.7,0000.0,0010.00,0003.36,0001.83
2022-06-04 23:12:00,,0820.5,4.99,0.00,29.3,27.7,00.0,38.1,31.1,19.7,0000.0,0010.06,0003.33,0001.82
2022-06-04 23:13:00,,0820.4,5.00,0.00,29.3,27.8,00.0,38.1,31.2,18.0,0000.0,0010.58,0003.33,0001.82
2022-06-04 23:14:00,,0820.5,5.00,0.00,29.3,28.0,00.0,38.1,31.2,17.5,0000.0,0010.28,0003.30,0001.79
2022-06-04 23:15:00,,0820.6,5.01,0.00,29.3,28.1,00.0,38.1,31.2,17.8,0000.0,0010.08,0003.25,0001.75
2022-06-04 23:16:00,,0820.6,5.00,0.00,29.3,28.2,00.0,38.1,31.3,20.0,0000.0,0010.05,0003.19,0001.73
2022-06-04 23:17:00,,0820.6,5.00,0.00,29.4,28.3,00.0,38.2,31.3,19.9,0000.0,0010.29,0003.18,0001.72
2022-06-04 23:18:00,,0820.6,5.01,0.00,29.4,28.4,00.0,38.2,31.3,20.1,0000.0,0009.98,0003.19,0001.70
2022-06-04 23:19:00,,0820.7,4.99,0.00,29.4,28.5,00.0,38.2,31.4,20.0,0000.0,0008.89,0003.15,0001.69
2022-06-04 23:20:00,,0820.7,4.99,0.00,29.4,28.6,00.0,38.2,31.4,19.5,0000.0,0008.69,0003.12,0001.68
2022-06-04 23:21:00,,0820.7,5.00,0.00,29.5,28.6,00.0,38.2,31.4,18.8,0000.0,0008.80,0003.19,0001.71
2022-06-04 23:22:00,,0820.8,5.01,0.00,29.5,28.7,00.0,38.3,31.5,19.5,0000.0,0009.20,0003.18,0001.70
2022-06-04 23:23:00,,0820.8,5.00,0.00,29.5,28.7,00.0,38.3,31.5,18.2,0000.0,0009.23,0003.17,0001.69
2022-06-04 23:24:00,,0820.8,5.00,0.00,29.6,28.7,00.0,38.3,31.5,17.9,0000.0,0008.71,0003.16,0001.70
2022-06-04 23:25:00,,0820.8,5.00,0.00,29.6,28.0,00.0,38.2,31.4,18.8,0000.0,0009.14,0003.15,0001.69
2022-06-04 23:26:00,,0820.8,4.99,0.00,29.5,27.4,00.0,38.2,31.2,18.7,0000.0,0009.18,0003.16,0001.70
2022-06-04 23:27:00,,0820.7,5.01,0.00,29.4,27.4,00.0,38.2,31.1,19.8,0000.0,0009.09,0003.14,0001.67
2022-06-04 23:28:00,,0820.8,5.01,0.00,29.4,27.4,00.0,38.2,31.1,19.2,0000.0,0009.19,0003.16,0001.68
2022-06-04 23:29:00,,0820.8,5.00,0.00,29.3,27.5,00.0,38.2,31.1,19.0,0000.0,0008.50,0003.16,0001.67
2022-06-04 23:30:00,,0820.8,4.99,0.00,29.3,27.7,00.0,38.2,31.2,19.9,0000.0,0008.50,0003.16,0001.67
2022-06-04 23:31:00,,0820.7,5.01,0.00,29.3,27.8,00.0,38.2,31.2,19.8,0000.0,0008.52,0003.15,0001.67
2022-06-04 23:32:00,,0820.7,5.00,0.00,29.3,27.9,00.0,38.2,31.2,19.4,0000.0,0008.79,0003.04,0001.65
2022-06-04 23:33:00,,0820.7,5.00,0.00,29.4,28.1,00.0,38.2,31.3,19.1,0000.0,0008.33,0002.96,0001.65
2022-06-04 23:34:00,,0820.7,5.00,0.00,29.4,28.2,00.0,38.2,31.3,19.8,0000.0,0007.99,0002.86,0001.64
2022-06-04 23:35:00,,0820.7,4.99,0.00,29.4,28.3,00.0,38.2,31.3,20.3,0000.0,0007.85,0002.81,0001.62
2022-06-04 23:36:00,,0820.7,5.00,0.00,29.4,28.4,00.0,38.2,31.4,20.6,0000.0,0007.05,0002.79,0001.62
2022-06-04 23:37:00,,0820.7,5.01,0.00,29.5,28.5,00.0,38.2,31.4,19.8,0000.0,0007.07,0002.78,0001.63
2022-06-04 23:38:00,,0820.7,5.01,0.00,29.5,28.5,00.0,38.3,31.4,20.4,0000.0,0007.71,0002.81,0001.64
2022-06-04 23:39:00,,0820.7,5.00,0.00,29.5,28.6,00.0,38.3,31.5,20.1,0000.0,0007.77,0002.71,0001.63
2022-06-04 23:40:00,,0820.7,5.00,0.00,29.5,28.7,00.0,38.3,31.5,20.9,0000.0,0007.70,0002.65,0001.61
2022-06-04 23:41:00,,0820.7,4.99,0.00,29.6,28.7,00.0,38.3,31.5,21.0,0000.0,0007.72,0002.63,0001.61
2022-06-04 23:42:00,,0820.7,5.01,0.00,29.6,28.5,00.0,38.3,31.5,20.5,0000.0,0007.85,0002.60,0001.61
2022-06-04 23:43:00,,0820.7,4.99,0.00,29.5,27.5,00.0,38.2,31.3,20.8,0000.0,0007.70,0002.60,0001.61
2022-06-04 23:44:00,,0820.7,5.00,0.00,29.4,26.9,00.0,38.2,31.0,21.2,0000.0,0007.67,0002.60,0001.62
2022-06-04 23:45:00,,0820.7,5.00,0.00,29.3,26.8,00.0,38.1,31.0,22.3,0000.0,0007.67,0002.58,0001.64
2022-06-04 23:46:00,,0820.6,5.00,0.00,29.3,26.9,00.0,38.1,30.9,21.7,0000.0,0007.61,0002.55,0001.64
2022-06-04 23:47:00,,0820.6,5.00,0.00,29.2,27.0,00.0,38.1,31.0,21.7,0000.0,0007.61,0002.52,0001.63
2022-06-04 23:48:00,,0820.6,5.01,0.00,29.2,27.2,00.0,38.1,31.0,22.5,0000.0,0007.51,0002.50,0001.64
2022-06-04 23:49:00,,0820.5,5.00,0.00,29.2,27.4,00.0,38.1,31.0,21.9,0000.0,0007.36,0002.49,0001.64
2022-06-04 23:50:00,,0820.6,4.99,0.00,29.2,27.6,00.0,38.1,31.1,22.2,0000.0,0007.06,0002.43,0001.64
2022-06-04 23:51:00,,0820.5,4.99,0.00,29.2,27.8,00.0,38.1,31.1,23.5,0000.0,0006.61,0002.45,0001.66
2022-06-04 23:52:00,,0820.5,5.00,0.00,29.2,27.9,00.0,38.1,31.1,24.1,0000.0,0006.65,0002.46,0001.66
2022-06-04 23:53:00,,0820.4,5.00,0.00,29.3,28.0,00.0,38.1,31.2,23.5,0000.0,0006.81,0002.48,0001.67
2022-06-04 23:54:00,,0820.4,5.01,0.00,29.3,28.2,00.0,38.1,31.2,21.8,0000.0,0006.51,0002.53,0001.68
2022-06-04 23:55:00,,0820.5,4.98,0.00,29.3,28.3,00.0,38.1,31.3,21.3,0000.0,0006.73,0002.54,0001.66
2022-06-04 23:56:00,,0820.4,5.01,0.00,29.4,28.4,00.0,38.1,31.3,21.0,0000.0,0006.94,0002.57,0001.65
2022-06-04 23:57:00,,0820.4,5.00,0.00,29.4,28.5,00.0,38.2,31.4,21.6,0000.0,0006.98,0002.60,0001.66
2022-06-04 23:58:00,,0820.3,5.00,0.00,29.4,28.5,00.0,38.2,31.4,22.0,0000.0,0006.90,0002.58,0001.67
2022-06-04 23:59:00,,0820.4,5.00,0.00,29.5,28.6,00.0,38.2,31.4,21.8,0000.0,0006.85,0002.58,0001.66
